Tracking 30995 objects as of 7-Jul-2025
HD Live streaming from Space Station
objects crossing your sky now

ONEWEB-0665

Track ONEWEB-0665 now!
10-day predictions
ONEWEB-0665 is classified as:


NORAD ID: 55825
Int'l Code: 2023-029AF
Perigee: 1,211.4 km
Apogee: 1,214.5 km
Inclination: 87.9 °
Period: 109.5 minutes
Semi major axis: 7583 km
RCS: Unknown
Launch date: March 9, 2023
Source: United Kingdom (UK)
Launch site: AIR FORCE EASTERN TEST RANGE (AFETR)
Your satellite tracking list
FENGYUN 1C DEB
Track 1 satellite(s)




NASA's NSSDC Master Catalog

Two Line Element Set (TLE):
1 55825U 23029AF  25187.50751764 -.00000132  00000-0 -39103-3 0  9996
2 55825  87.9040 358.5039 0002073  97.2194 262.9172 13.14502133113997
Source of the keplerian elements: AFSPC